Regional Weather Roundup
Issued by NWS

Current Version | Previous Version | Graphics & Text | Print | Product List | Glossary On
Versions: 1 2 3 4 5 6 7 8 9 10 11 12 13 14 15 16 17 18 19 20 21 22 23 24 25 26 27 28 29 30 31 32 33 34 35 36 37 38 39 40 41 42 43 44 45 46 47 48 49 50
000
ASUS44 KBMX 210510
RWRAL

ALABAMA REGIONAL WEATHER ROUNDUP
NATIONAL WEATHER SERVICE BIRMINGHAM AL
1200 AM CDT WED OCT 21 2020

NOTE: "FAIR" INDICATES FEW OR NO CLOUDS BELOW 12,000 FEET
WITH NO SIGNIFICANT WEATHER AND/OR OBSTRUCTIONS TO VISIBILITY.

THE REMARK "TC" DENOTES TEMPERATURE IN DEGREES CELSIUS.

ALZ001>011-014-016>018-020-210600-
NORTH ALABAMA

CITY           SKY/WX    TMP DP  RH WIND       PRES   REMARKS
MUSCLE SHOALS  CLEAR     62  59  90 CALM      30.13R
HUNTSVILLE     CLEAR     61  58  90 N3        30.14R
DECATUR        CLEAR     59  59 100 E3        30.14R
HALEYVILLE     FAIR      60  59  96 CALM      30.16R
GADSDEN        CLEAR     58  57  97 CALM      30.15S
$$

ALZ012-013-022-023-030>036-040>044-210600-
WEST CENTRAL ALABAMA

CITY           SKY/WX    TMP DP  RH WIND       PRES   REMARKS
TUSCALOOSA     CLEAR     65  63  93 NE5       30.10S
DEMOPOLIS      FAIR      69  65  87 CALM      30.08F
$$

ALZ015-024>026-033>036-041>044-210600-
CENTRAL ALABAMA

CITY           SKY/WX    TMP DP  RH WIND       PRES   REMARKS
BIRMINGHAM     CLEAR     71  61  70 E5        30.14F
MONTGOMERY     NOT AVBL
SHELBY CO ARPT CLEAR     66  63  90 CALM      30.12F
MAXWELL AFB    CLEAR     68 N/A N/A NE3       30.11F
GREENVILLE     NOT AVBL
SELMA          FAIR      70  64  83 E6        30.10S
PRATTVILLE     FAIR      66  66 100 CALM      30.11F
BESSEMER         N/A     69  62  78 SE7       30.12F
TALLADEGA      FAIR      60  59  96 CALM      30.15S
PELL CITY      CLEAR     59  59 100 CALM      30.14S
MARION         NOT AVBL
SYLACAUGA      CLOUDY    67  62  85 SE3       30.14S
$$

ALZ019-021-028-029-037-038-045>048-210600-
EAST CENTRAL ALABAMA

CITY           SKY/WX    TMP DP  RH WIND       PRES   REMARKS
ANNISTON       CLEAR     66  61  84 NE5       30.15S
ALEXANDER CITY CLEAR     63  62  96 CALM      30.15S
AUBURN         CLEAR     68  62  81 E7        30.16S
$$

ALZ051>064-210600-
SOUTHWEST ALABAMA

CITY           SKY/WX    TMP DP  RH WIND       PRES   REMARKS
MOBILE         CLEAR     73  66  78 NE9       30.06F
BROOKLEY FIELD CLEAR     78  69  73 E12       30.06F
EVERGREEN      CLEAR     71  64  78 NE5       30.09F
$$

ALZ049-050-065>069-210600-
SOUTHEAST ALABAMA

CITY           SKY/WX    TMP DP  RH WIND       PRES   REMARKS
DOTHAN         CLEAR     72  66  81 E8        30.13F
OZARK          CLEAR     69  64  85 N5        30.09F
TROY           NOT AVBL
EUFAULA        FAIR      70  63  78 CALM      30.13F
$$



USA.gov is the U.S. government's official web portal to all federal, state and local government web resources and services.